TimeEDT,TemperatureF,Dew PointF,Humidity,Sea Level PressureIn,VisibilityMPH,Wind Direction,Wind SpeedMPH,Gust SpeedMPH,PrecipitationIn,Events,Conditions,WindDirDegrees,DateUTC
2:53 AM,53.6,51.8,94,30.07,10.0,Calm,Calm,-,N/A,,Clear,0,2013-08-16 06:53:00
3:53 AM,53.6,51.8,94,30.07,10.0,Calm,Calm,-,N/A,,Clear,0,2013-08-16 07:53:00
4:53 AM,51.8,51.8,100,30.08,10.0,Calm,Calm,-,N/A,,Partly Cloudy,0,2013-08-16 08:53:00
5:53 AM,53.6,50.0,88,30.09,10.0,Calm,Calm,-,N/A,,Mostly Cloudy,0,2013-08-16 09:53:00
6:53 AM,55.4,53.6,94,30.10,10.0,Calm,Calm,-,N/A,,Mostly Cloudy,0,2013-08-16 10:53:00
7:53 AM,61.0,54.0,78,30.11,10.0,Calm,Calm,-,N/A,,Mostly Cloudy,0,2013-08-16 11:53:00
8:53 AM,66.9,55.0,66,30.11,10.0,Calm,Calm,-,N/A,,Mostly Cloudy,0,2013-08-16 12:53:00
9:53 AM,70.0,55.9,61,30.11,10.0,Calm,Calm,-,N/A,,Mostly Cloudy,0,2013-08-16 13:53:00
10:53 AM,73.0,51.1,46,30.11,10.0,Calm,Calm,-,N/A,,Mostly Cloudy,0,2013-08-16 14:53:00
11:53 AM,75.0,50.0,41,30.09,10.0,South,10.4,-,N/A,,Scattered Clouds,190,2013-08-16 15:53:00
12:53 PM,75.9,53.1,45,30.10,10.0,SSW,11.5,-,N/A,,Scattered Clouds,210,2013-08-16 16:53:00
1:53 PM,75.9,52.0,43,30.10,10.0,Variable,4.6,-,N/A,,Scattered Clouds,0,2013-08-16 17:53:00
2:53 PM,77.0,52.0,42,30.09,10.0,South,11.5,-,N/A,,Scattered Clouds,190,2013-08-16 18:53:00
3:53 PM,77.0,54.0,45,30.09,10.0,South,11.5,-,N/A,,Scattered Clouds,190,2013-08-16 19:53:00
4:53 PM,75.0,53.1,46,30.10,10.0,South,10.4,-,N/A,,Scattered Clouds,180,2013-08-16 20:53:00
5:53 PM,72.0,51.1,48,30.10,10.0,South,9.2,-,N/A,,Partly Cloudy,170,2013-08-16 21:53:00
6:53 PM,71.1,52.0,51,30.12,10.0,Calm,Calm,-,N/A,,Scattered Clouds,0,2013-08-16 22:53:00
7:53 PM,66.9,55.0,66,30.14,10.0,South,5.8,-,N/A,,Mostly Cloudy,170,2013-08-16 23:53:00
8:53 PM,62.1,55.0,78,30.16,10.0,SE,4.6,-,N/A,,Scattered Clouds,140,2013-08-17 00:53:00
9:53 PM,62.1,55.9,80,30.16,10.0,South,3.5,-,N/A,,Scattered Clouds,170,2013-08-17 01:53:00
10:53 PM,61.0,55.9,83,30.19,10.0,Variable,3.5,-,N/A,,Mostly Cloudy,0,2013-08-17 02:53:00
11:53 PM,60.1,55.9,86,30.18,10.0,SE,4.6,-,N/A,,Scattered Clouds,130,2013-08-17 03:53:00